Wind_Speed
14 13 7 2 1 3 3 4 2 5 3 3 2 4 5 13 6 2 1 4 5 6 4 3 6 7 6 6 6 6 6 7 8 8 7 7 7 6 5 3 2 1 1 0 0 1 0 1 3
12 11 5 2 6 6 3 2 5 10 3 2 3 5 11 6 7 3 3 2 9 6 5 4 5 7 6 5 5 5 5 6 7 7 6 6 5 4 4 3 2 1 1 1 1 1 1 1 3
9 8 3 3 3 7 6 5 8 8 9 3 3 8 5 3 2 3 5 11 8 5 6 4 5 5 4 3 2 1 1 2 3 4 4 3 3 4 4 3 3 2 2 2 2 3 4 5 6
8 4 4 4 10 5 3 3 5 10 2 3 4 8 5 5 2 6 10 9 7 7 8 7 6 4 3 1 1 1 1 2 2 2 2 2 2 4 5 5 5 5 5 6 6 7 7 8 9
3 2 2 4 8 4 4 10 4 5 1 3 3 4 4 2 5 9 8 8 6 8 10 9 8 5 4 4 3 3 4 4 3 2 2 2 3 4 5 6 6 7 8 8 9 9 8 9 9
1 1 2 4 7 3 4 7 6 2 2 4 4 5 4 8 4 8 8 8 7 7 8 9 9 7 6 6 6 6 5 5 5 5 5 5 5 6 5 5 6 7 8 10 12 12 11 11 11
3 2 2 2 3 6 4 4 3 6 3 4 4 3 5 5 6 8 10 8 7 6 6 6 7 7 5 5 5 6 6 7 7 7 6 6 5 4 4 5 5 5 8 10 12 13 13 14 13
5 4 6 2 3 3 7 6 6 5 4 4 3 3 6 6 8 9 8 7 6 6 6 7 7 6 6 6 6 5 6 6 6 6 4 2 3 4 6 7 9 10 12 12 12 13 13 15 15
6 3 7 5 6 6 7 4 2 4 9 5 6 8 11 10 9 10 9 7 5 3 4 6 7 5 5 5 5 6 5 4 3 0 2 8 11 12 12 13 14 17 17 17 18 17 16 15 15
3 4 7 4 6 9 4 4 8 6 7 10 18 16 14 13 12 11 9 7 5 6 5 6 5 5 4 4 2 1 3 2 3 5 9 13 13 12 12 14 15 14 15 15 16 15 17 16 15
4 3 7 7 9 7 7 10 3 12 8 6 16 14 14 13 12 11 9 7 5 7 8 7 5 2 3 3 3 3 4 6 9 11 14 15 15 16 15 14 11 10 11 11 13 13 14 15 16
3 5 5 3 9 5 9 15 10 12 11 16 15 15 13 11 10 9 7 9 7 6 6 4 1 2 3 4 5 7 8 10 12 13 14 13 12 8 7 9 9 8 9 9 10 10 10 13 15
3 1 3 3 6 6 14 12 14 20 18 18 16 14 13 11 9 6 6 5 5 3 4 2 0 2 4 6 8 10 10 10 9 8 9 8 6 7 9 11 11 11 12 10 10 8 11 10 12
5 2 8 8 10 11 16 14 6 11 18 19 14 15 10 10 9 6 4 3 3 3 4 4 4 4 6 8 9 9 7 6 6 7 7 6 6 8 10 10 13 14 15 15 14 14 15 14 12
8 9 9 5 8 7 20 8 11 16 18 19 17 14 13 12 8 6 5 4 4 5 6 8 7 6 8 6 5 6 5 6 6 7 8 8 9 11 13 15 16 18 17 16 15 16 18 19 18
4 3 4 7 3 8 3 9 11 13 18 17 16 13 13 12 11 9 8 7 6 6 4 4 4 6 7 9 10 11 13 11 11 13 13 13 13 14 15 17 18 19 20 21 19 19 19 21 23
1 4 4 9 2 5 2 9 11 11 16 16 14 13 12 12 11 10 9 10 10 9 7 5 3 6 8 9 10 11 13 14 16 17 16 17 18 19 20 21 21 22 23 24 25 23 22 23 24
5 5 4 8 3 4 7 10 11 10 14 14 14 13 13 12 12 12 12 13 13 14 13 11 9 7 7 9 11 13 15 16 17 18 19 19 20 21 21 22 23 24 24 26 26 27 26 26 25
7 4 6 4 4 4 8 12 7 9 12 13 12 13 13 12 12 11 12 13 13 14 13 13 12 12 10 9 10 11 13 15 17 18 18 19 20 21 22 22 23 23 24 24 25 26 26 23 21
6 12 5 8 6 6 10 8 6 8 8 11 14 13 14 13 11 10 11 10 10 11 13 14 14 16 18 20 21 21 19 18 17 18 18 18 18 19 20 21 21 22 22 22 21 20 20 18 16
7 9 12 6 10 10 13 4 7 5 7 9 10 11 12 12 12 11 9 8 9 9 10 12 16 19 21 24 25 24 22 19 17 16 17 17 17 18 18 19 19 19 18 18 18 17 16 15 12
6 3 13 17 7 3 7 3 12 12 11 15 15 15 14 14 12 10 8 7 5 5 9 12 16 19 22 25 28 28 23 19 18 18 18 17 17 16 15 14 14 15 15 15 16 16 16 17 15
4 11 13 9 4 7 8 4 7 11 16 18 20 19 17 15 12 11 9 5 2 2 7 11 15 18 23 28 29 23 18 16 16 16 16 15 14 13 13 12 12 12 12 13 14 15 15 17 17
18 9 7 3 2 4 4 6 4 8 17 14 20 22 19 17 15 12 10 6 2 3 7 13 17 22 27 30 27 21 17 16 16 16 15 14 12 10 10 11 10 10 11 12 13 12 12 13 13
2 6 3 3 3 3 1 5 4 2 4 7 22 24 21 19 18 14 12 7 5 5 8 13 18 23 27 26 22 18 16 15 15 15 14 14 12 10 8 9 9 9 11 11 10 11 12 12 12
3 2 2 2 3 2 3 4 1 0 2 5 12 21 21 19 17 15 13 10 7 5 8 13 18 22 24 22 18 16 14 13 13 15 15 13 12 11 8 7 8 9 10 10 10 11 11 12 12
5 3 3 5 1 3 0 2 7 3 2 10 10 18 21 20 19 18 16 12 9 6 8 13 17 21 21 17 16 14 12 13 14 16 18 19 18 17 13 10 9 10 10 11 13 13 12 12 12
1 8 3 1 2 3 2 3 5 4 7 8 14 21 23 21 19 19 18 14 10 5 8 12 17 18 15 14 14 14 13 13 14 15 18 19 19 19 16 14 14 14 15 16 16 15 14 13 11
4 3 5 4 1 3 5 2 3 4 8 13 18 22 23 23 21 20 19 15 10 6 7 12 15 13 10 11 13 13 13 11 13 13 15 17 17 19 20 19 17 15 15 17 19 18 17 18 17
2 3 4 3 4 1 2 6 3 4 5 11 13 18 19 21 21 19 18 14 9 5 6 10 12 7 7 9 10 9 11 12 12 13 13 14 14 14 14 14 13 12 12 14 15 16 18 19 19
Wind_Direction
355 355 5 24 98 50 76 116 120 168 206 208 38 344 346 43 33 63 30 109 141 141 133 126 144 143 127 116 106 100 106 122 132 131 128 130 134 135 133 130 126 100 42 344 321 331 315 219 226
358 356 5 359 59 57 52 135 201 207 170 111 111 22 34 56 46 53 98 113 129 135 122 121 144 148 147 139 126 119 114 121 130 135 138 138 137 140 144 145 145 156 321 338 356 354 319 272 251
3 2 2 49 53 45 341 275 267 187 144 62 58 48 44 29 47 92 102 117 119 111 96 100 124 141 149 158 179 170 132 124 134 146 151 162 178 195 210 224 233 240 250 251 262 280 289 287 275
358 356 47 46 46 48 309 313 141 135 163 329 80 69 67 99 78 113 124 114 108 96 86 86 98 104 114 130 121 102 110 98 95 124 160 198 223 241 248 254 261 265 265 267 271 278 284 286 283
8 21 13 71 63 54 87 121 105 159 140 83 33 99 113 107 136 130 125 116 106 108 111 122 125 125 131 126 108 90 78 77 77 65 26 346 328 318 311 303 289 273 262 259 261 265 271 271 269
126 85 334 47 75 113 130 187 171 203 102 96 84 110 97 139 113 133 130 120 124 131 135 131 122 124 115 112 120 127 121 98 79 66 49 26 14 7 4 340 321 307 294 283 277 274 270 269 271
196 133 168 100 47 149 153 148 150 125 112 70 99 85 98 95 112 134 141 139 131 130 119 103 92 97 109 112 85 69 67 61 61 59 57 47 23 2 354 341 308 287 287 289 285 281 276 271 271
151 116 158 164 127 89 158 140 130 138 103 104 38 96 89 92 123 129 123 120 135 138 131 104 94 102 105 105 98 90 89 96 99 96 101 73 352 314 292 295 287 283 282 275 268 274 279 275 273
151 165 211 188 178 142 163 159 123 109 118 70 39 72 103 119 137 134 115 119 134 121 118 120 107 106 108 110 113 102 89 90 111 160 308 312 300 300 301 307 302 298 300 296 290 285 284 279 282
162 207 200 192 178 155 149 167 140 147 109 79 88 94 127 137 138 139 131 128 141 141 152 158 155 116 115 136 156 340 317 303 290 311 312 309 301 304 305 301 300 300 293 286 290 293 290 281 273
157 209 174 206 211 157 126 128 104 131 87 92 121 112 125 129 130 133 137 125 115 111 162 175 176 165 190 223 271 282 283 292 299 304 304 300 300 300 302 306 316 325 326 319 290 283 290 286 280
191 207 186 159 217 186 164 129 91 73 100 120 113 121 124 121 117 120 112 92 89 79 80 87 114 230 233 241 255 269 279 289 293 297 298 296 294 305 330 338 336 341 353 345 330 300 308 299 285
210 43 158 265 185 149 131 116 106 97 109 110 110 123 110 115 109 94 77 70 65 68 59 71 80 253 262 271 276 282 284 283 288 293 297 303 315 320 320 326 327 320 331 330 325 333 339 315 283
131 67 104 102 135 144 128 123 103 112 117 102 122 109 106 100 94 85 60 35 2 347 332 338 314 299 296 297 296 290 285 287 293 292 292 298 320 327 323 323 316 318 320 313 311 309 301 297 299
152 101 110 86 132 118 126 84 98 130 120 103 101 101 101 95 99 85 70 53 30 10 354 333 325 333 326 322 318 303 296 312 310 313 309 304 305 314 318 318 317 315 315 315 308 298 296 290 284
151 152 143 146 129 153 256 144 132 141 125 111 105 104 100 95 90 88 82 67 54 42 20 14 355 333 324 331 331 327 321 321 323 322 322 321 319 319 317 315 313 312 312 312 311 307 300 292 289
99 160 133 162 99 151 336 141 150 149 135 121 115 113 102 96 94 88 80 75 70 64 54 33 16 344 336 335 330 326 326 322 317 316 315 315 316 317 316 315 313 311 309 308 307 305 301 296 290
142 130 123 167 147 75 88 112 129 148 141 133 125 122 114 106 100 98 93 87 82 75 67 61 46 31 356 338 329 324 318 316 314 314 316 315 314 312 313 312 309 307 307 306 303 301 298 296 295
119 155 135 78 12 104 119 133 134 151 145 139 134 130 123 120 119 112 101 92 84 77 69 60 52 40 25 9 352 337 329 319 313 312 313 312 312 313 312 313 314 315 315 316 316 314 313 309 303
150 145 114 88 56 98 138 117 131 173 163 162 153 149 144 139 137 126 107 92 80 69 57 47 35 25 15 8 2 353 341 331 324 322 321 321 321 320 322 323 324 325 327 330 332 333 334 331 330
177 178 169 144 112 83 140 135 180 188 173 168 169 159 158 159 159 140 126 103 78 64 56 41 29 18 8 2 356 350 340 333 330 330 331 330 331 330 329 332 335 339 344 350 356 3 7 2 358
155 241 143 139 171 138 216 180 201 192 193 195 180 171 174 175 164 150 143 121 97 67 40 25 18 9 1 356 350 346 343 342 341 344 346 348 344 345 346 349 354 1 10 17 21 21 21 17 6
111 132 128 147 96 145 196 258 125 198 218 206 187 186 187 179 172 171 168 154 128 28 15 7 4 1 358 353 351 351 350 350 349 350 353 355 358 357 360 3 10 17 29 30 30 25 21 22 26
137 107 89 94 123 229 168 236 189 189 234 205 193 192 187 182 181 182 190 185 221 302 346 354 355 359 356 351 351 356 357 355 354 354 358 2 4 4 9 16 24 30 33 33 32 21 17 15 22
140 163 162 205 207 298 67 202 294 210 222 223 200 189 184 184 183 188 197 200 241 288 341 344 356 357 351 348 352 358 0 359 3 3 360 0 359 3 11 24 33 30 24 22 18 11 6 6 8
117 196 221 272 277 5 163 233 249 14 260 216 205 193 182 182 187 191 200 212 239 282 324 348 352 350 346 348 356 0 3 9 14 14 13 8 4 3 10 27 28 22 19 18 13 5 1 360 357
141 140 60 106 84 244 130 253 253 244 227 206 182 185 185 186 191 192 204 217 234 273 329 343 349 349 350 2 6 11 27 30 35 36 40 43 41 44 45 43 36 35 35 31 28 24 21 18 20
81 130 152 108 206 282 208 259 274 226 216 189 195 192 191 189 184 192 204 214 230 269 320 340 347 353 5 19 35 46 45 42 51 48 46 49 51 53 54 59 61 61 56 45 33 28 24 22 21
145 147 71 100 323 276 292 263 202 214 207 206 203 198 190 184 184 193 202 210 227 268 320 340 350 1 23 46 52 47 36 52 60 52 48 52 54 56 58 62 63 61 48 35 33 39 43 45 44
85 146 153 205 200 198 291 283 182 232 255 222 203 194 188 184 184 188 199 209 222 262 318 342 353 14 50 63 60 43 62 64 48 44 47 47 47 45 44 44 42 31 28 31 35 42 42 40 37
Height
1526 1524 1522 1522 1524 1522 1534 1537 1532 1533 1533 1532 1532 1532 1534 1533 1536 1546 1544 1545 1546 1548 1549 1550 1551 1551 1552 1552 1552 1552 1551 1551 1550 1550 1551 1552 1552 1552 1553 1553 1553 1553 1554 1553 1553 1552 1552 1552 1552
1526 1524 1523 1522 1526 1533 1535 1532 1533 1529 1530 1532 1534 1534 1535 1540 1542 1544 1546 1546 1547 1549 1550 1551 1551 1552 1552 1553 1552 1552 1552 1551 1550 1550 1551 1551 1552 1552 1552 1552 1552 1552 1553 1553 1553 1552 1552 1551 1551
1526 1525 1525 1524 1532 1538 1536 1531 1528 1529 1532 1534 1535 1537 1540 1544 1544 1545 1546 1548 1550 1551 1551 1552 1552 1553 1554 1554 1553 1552 1553 1553 1552 1551 1551 1552 1552 1552 1552 1552 1552 1552 1552 1552 1552 1552 1551 1551 1550
1527 1527 1528 1527 1536 1537 1536 1530 1530 1533 1535 1535 1538 1542 1545 1544 1545 1545 1547 1549 1551 1552 1553 1553 1555 1555 1555 1556 1556 1554 1554 1553 1553 1552 1552 1552 1551 1551 1552 1551 1552 1552 1552 1552 1551 1551 1550 1550 1549
1528 1528 1526 1531 1538 1537 1535 1536 1536 1535 1536 1538 1539 1544 1547 1546 1546 1547 1549 1551 1553 1552 1552 1553 1553 1555 1555 1556 1556 1556 1555 1554 1554 1553 1554 1554 1553 1552 1553 1552 1551 1551 1550 1550 1549 1549 1548 1547 1547
1529 1530 1531 1535 1538 1537 1536 1537 1537 1538 1540 1540 1541 1544 1547 1547 1548 1550 1552 1552 1553 1553 1553 1554 1554 1555 1556 1556 1556 1555 1554 1554 1555 1554 1554 1555 1554 1553 1552 1552 1551 1550 1550 1548 1548 1547 1546 1545 1545
1527 1528 1534 1536 1535 1536 1536 1538 1536 1537 1540 1542 1544 1544 1550 1550 1551 1551 1552 1553 1554 1555 1556 1556 1557 1557 1557 1558 1558 1558 1557 1556 1555 1555 1555 1554 1554 1553 1552 1550 1549 1548 1547 1546 1545 1544 1544 1543 1543
1526 1528 1536 1535 1534 1534 1535 1539 1539 1538 1542 1544 1544 1545 1551 1552 1553 1553 1555 1556 1556 1557 1558 1558 1559 1559 1559 1558 1558 1558 1557 1556 1555 1554 1553 1552 1552 1550 1549 1547 1546 1545 1544 1543 1542 1541 1540 1540 1540
1524 1527 1530 1531 1534 1530 1533 1534 1538 1539 1542 1546 1548 1550 1553 1554 1554 1555 1557 1558 1558 1559 1559 1560 1560 1560 1560 1560 1559 1558 1558 1556 1555 1554 1552 1552 1550 1549 1548 1547 1545 1544 1543 1542 1541 1539 1537 1536 1537
1524 1525 1527 1528 1527 1528 1531 1533 1536 1540 1543 1549 1551 1553 1553 1553 1554 1556 1557 1558 1558 1559 1561 1561 1562 1561 1561 1560 1560 1558 1558 1557 1555 1553 1552 1550 1548 1546 1545 1543 1542 1540 1539 1537 1538 1536 1535 1534 1533
1524 1524 1527 1526 1526 1527 1530 1534 1537 1539 1544 1550 1551 1552 1553 1554 1555 1557 1557 1558 1560 1561 1561 1561 1562 1562 1561 1560 1560 1559 1558 1556 1554 1552 1550 1548 1545 1544 1543 1541 1539 1537 1536 1535 1535 1533 1532 1532 1530
1522 1523 1525 1524 1525 1527 1530 1535 1539 1541 1549 1551 1552 1554 1555 1556 1558 1559 1561 1562 1562 1563 1563 1561 1562 1562 1561 1561 1560 1559 1557 1555 1553 1550 1549 1547 1545 1543 1540 1539 1537 1537 1535 1534 1532 1531 1529 1529 1528
1521 1522 1524 1524 1525 1527 1531 1535 1540 1550 1552 1552 1554 1556 1556 1558 1560 1562 1562 1563 1563 1564 1563 1563 1562 1562 1561 1560 1559 1556 1554 1552 1550 1548 1547 1545 1543 1541 1539 1538 1537 1536 1534 1532 1531 1529 1527 1526 1526
1520 1521 1524 1525 1525 1528 1530 1538 1539 1554 1554 1555 1555 1557 1559 1560 1561 1562 1563 1563 1563 1562 1562 1561 1561 1560 1559 1558 1556 1554 1552 1551 1549 1547 1545 1544 1541 1540 1538 1537 1535 1533 1532 1531 1529 1527 1526 1525 1524
1519 1521 1524 1527 1527 1530 1531 1537 1548 1553 1555 1557 1559 1561 1562 1563 1564 1563 1563 1563 1562 1562 1561 1560 1560 1559 1558 1557 1556 1555 1553 1551 1549 1546 1544 1542 1541 1539 1537 1535 1533 1531 1530 1528 1526 1525 1523 1521 1520
1517 1519 1520 1527 1528 1531 1530 1541 1551 1554 1555 1559 1562 1563 1564 1564 1564 1564 1564 1563 1563 1562 1562 1562 1561 1560 1559 1557 1556 1554 1553 1551 1548 1545 1542 1540 1538 1536 1534 1532 1530 1529 1526 1524 1523 1521 1519 1518 1515
1518 1518 1523 1527 1529 1528 1529 1540 1550 1554 1556 1560 1562 1564 1565 1564 1564 1564 1565 1564 1564 1564 1563 1562 1561 1561 1559 1557 1555 1554 1552 1549 1546 1544 1541 1537 1535 1533 1531 1529 1527 1525 1523 1521 1518 1517 1516 1513 1511
1518 1519 1524 1524 1530 1530 1533 1542 1552 1555 1556 1558 1563 1564 1565 1566 1566 1566 1566 1565 1565 1564 1563 1562 1562 1561 1560 1559 1556 1554 1551 1548 1544 1541 1539 1536 1533 1530 1528 1526 1524 1521 1519 1517 1514 1512 1510 1508 1505
1514 1517 1522 1532 1534 1534 1539 1550 1556 1557 1558 1559 1562 1565 1566 1567 1567 1567 1566 1566 1566 1565 1564 1564 1564 1562 1561 1559 1556 1553 1550 1547 1543 1540 1537 1534 1530 1528 1525 1522 1520 1517 1515 1512 1509 1507 1504 1503 1500
1515 1520 1530 1536 1536 1535 1547 1556 1559 1559 1559 1560 1562 1564 1564 1566 1567 1568 1567 1567 1567 1566 1565 1565 1564 1562 1560 1557 1553 1550 1547 1543 1539 1536 1532 1529 1526 1523 1521 1518 1516 1514 1512 1509 1507 1504 1502 1500 1497
1515 1514 1526 1526 1538 1541 1548 1558 1559 1560 1560 1561 1562 1564 1564 1564 1566 1568 1568 1568 1568 1567 1566 1564 1562 1560 1558 1556 1552 1549 1545 1541 1537 1534 1530 1526 1524 1522 1520 1517 1515 1512 1510 1508 1505 1503 1502 1499 1497
1511 1510 1516 1526 1526 1536 1539 1540 1551 1553 1555 1558 1560 1563 1562 1564 1566 1566 1567 1567 1567 1567 1565 1563 1561 1559 1557 1554 1550 1546 1542 1539 1535 1532 1528 1525 1522 1520 1519 1516 1514 1512 1510 1508 1507 1505 1502 1499 1497
1511 1513 1518 1524 1526 1528 1541 1536 1536 1545 1546 1546 1554 1557 1560 1562 1564 1565 1565 1565 1566 1566 1565 1564 1561 1558 1555 1551 1547 1544 1540 1537 1534 1531 1528 1525 1522 1520 1518 1517 1515 1514 1512 1510 1508 1506 1504 1501 1499
1511 1516 1522 1526 1526 1531 1532 1533 1522 1537 1529 1537 1548 1552 1556 1559 1562 1563 1564 1564 1566 1566 1565 1562 1559 1555 1552 1548 1545 1541 1539 1536 1534 1531 1528 1525 1523 1521 1519 1517 1515 1514 1513 1511 1509 1508 1505 1503 1500
1509 1512 1526 1532 1533 1534 1539 1540 1518 1528 1532 1535 1539 1545 1551 1555 1558 1561 1562 1563 1565 1565 1563 1561 1558 1554 1552 1548 1544 1541 1539 1536 1534 1531 1528 1524 1522 1520 1519 1517 1516 1515 1513 1512 1511 1508 1506 1503 1500
1511 1510 1519 1541 1538 1532 1541 1533 1520 1530 1533 1534 1536 1542 1548 1552 1556 1559 1560 1562 1564 1564 1563 1561 1558 1555 1552 1548 1544 1541 1539 1536 1534 1531 1528 1525 1522 1520 1518 1518 1517 1516 1515 1513 1511 1509 1506 1503 1500
1512 1513 1521 1533 1546 1537 1531 1530 1522 1528 1530 1532 1536 1540 1546 1550 1553 1556 1559 1561 1563 1563 1562 1560 1558 1555 1551 1547 1544 1541 1539 1537 1535 1533 1530 1526 1523 1521 1519 1519 1518 1517 1516 1514 1511 1509 1507 1504 1502
1505 1516 1523 1523 1540 1541 1531 1534 1520 1522 1523 1530 1533 1536 1541 1546 1550 1554 1557 1559 1561 1561 1561 1559 1557 1554 1551 1548 1545 1543 1541 1539 1538 1536 1533 1530 1528 1525 1523 1522 1521 1519 1518 1516 1513 1510 1507 1505 1503
1512 1513 1524 1524 1531 1532 1534 1523 1515 1517 1519 1522 1526 1531 1537 1543 1548 1552 1555 1558 1559 1560 1560 1558 1556 1554 1551 1549 1547 1546 1543 1542 1540 1539 1536 1534 1532 1530 1528 1526 1524 1522 1520 1518 1515 1512 1510 1507 1505
1505 1509 1511 1518 1533 1536 1535 1525 1515 1517 1519 1521 1525 1531 1537 1542 1546 1550 1552 1555 1557 1559 1558 1557 1556 1554 1552 1550 1549 1548 1546 1545 1543 1541 1539 1537 1535 1533 1531 1529 1526 1524 1522 1520 1518 1515 1513 1510 1507